{"data":{"norad_id":37763,"intl_designator":"2011-038A","name":"BEIDOU-2 IGSO-4 (C09)","alt_names":[],"object_type":"PAYLOAD","status":"ACTIVE","operator":null,"country":"PRC","launch_date":"2011-07-26","launch_site_code":"XICLF","launch_vehicle":null,"mission":null,"orbit_class":"UNKNOWN","rcs_meters":16.2984,"size_class":null,"mass_kg":null,"dimensions":null,"purposes":["comms","nav"],"wikipedia_slug":null,"has_3d_model":false,"image_url":null,"decayed_at":null,"tle_current":{"epoch":"2026-05-25T00:45:21.792672Z","epoch_age_seconds":65697,"freshness":"FRESH","line1":"1 37763U 11038A   26145.03150223  .00000043  00000+0  00000+0 0  9998","line2":"2 37763  54.5939 165.8779 0158413 231.3629 308.9932  1.00289137 54413","mean_motion":1.00289137,"eccentricity":0.0158413,"inclination_deg":54.5939,"raan_deg":165.8779,"arg_perigee_deg":231.3629,"mean_anomaly_deg":308.9932,"bstar":0,"rev_number":5441,"period_min":1435.8484309223,"perigee_km":35113.864145893,"apogee_km":36449.598388251,"semimajor_km":42159.868267072,"source":"CELESTRAK","updated_at":"2026-05-25T13:38:24.209713Z"}}}